Ames, IA

2:08 AM CDT on March 25, 2017 (GMT -0500)
Ames Municipal

Weather History for KAMW - November, 2013

Change the Weather History Date:

Sunday, November 3, 2013

  Actual Average Record
Temperature  
Mean Temperature 43 °F 43 °F  
Max Temperature 56 °F 54 °F 75 °F (2008)
Min Temperature 30 °F 33 °F 17 °F (2006)
Degree Days  
Heating Degree Days 22 22  
Month to date heating degree days 62 65  
Since 1 July heating degree days 602 661  
Cooling Degree Days 0 0  
Month to date cooling degree days 0 0  
Year to date cooling degree days 913 752  
Moisture  
Dew Point 31 °F    
Average Humidity 65    
Maximum Humidity 92    
Minimum Humidity 38    
Precipitation  
Precipitation 0.00 in 0.10 in 2.96 in (2003)
Month to date precipitation 0.02 0.29  
Sea Level Pressure  
Sea Level Pressure 30.04 in    
Wind  
Wind Speed 14 mph (SSE)    
Max Wind Speed 29 mph    
Max Gust Speed 37 mph    
Visibility 10 miles    
Events      
T = Trace of Precipitation, MM = Missing Value Source: NWS Daily Summary

Daily Weather History Graph

Daily Weather History Graph

Search for Another Location

Airport or City:

Trip Planner

Search our weather history database for the weather conditions in past years. The results will help you decide how hot, cold, wet, or windy it might be!

Date:

Astronomy

Nov. 03, 2013 Rise Set
Actual Time 6:49 AM CST 5:05 PM CST
Civil Twilight 6:20 AM CST 5:34 PM CST
Nautical Twilight 5:47 AM CST 6:07 PM CST
Astronomical Twilight 5:15 AM CST 6:40 PM CST
Moon 6:54 AM CST (11/3) 5:20 PM CST (11/3)
Length of Visible Light 11h 14m
Length of Day
10h 15m
New Moon, 0% of the Moon is Illuminated
Nov 3
New Moon
Nov 9
First Quarter
Nov 17
Full
Nov 25
Last Quarter
Dec 2
New

Hourly Weather History & Observations

Time (CST) Temp. Windchill Dew Point Humidity Pressure Visibility Wind Dir Wind Speed Gust Speed Precip Events Conditions
12:53 AM 33.1 °F - 30.0 °F 89% 30.14 in 8.0 mi Calm Calm - N/A   Clear
1:53 AM 32.0 °F 28.7 °F 28.9 °F 88% 30.15 in 9.0 mi SE 3.5 mph - N/A   Clear
1:53 AM 30.9 °F 26.2 °F 28.9 °F 92% 30.15 in 9.0 mi SSE 4.6 mph - N/A   Clear
2:53 AM 30.9 °F 27.5 °F 28.0 °F 89% 30.14 in 9.0 mi SE 3.5 mph - N/A   Clear
3:53 AM 30.9 °F 25.2 °F 28.9 °F 92% 30.14 in 10.0 mi SE 5.8 mph - N/A   Clear
4:53 AM 30.0 °F 24.1 °F 28.0 °F 92% 30.14 in 10.0 mi SE 5.8 mph - N/A   Clear
5:53 AM 30.9 °F 25.2 °F 28.0 °F 89% 30.14 in 10.0 mi SSE 5.8 mph - N/A   Clear
6:53 AM 32.0 °F 24.8 °F 28.9 °F 88% 30.14 in 10.0 mi SSE 8.1 mph - N/A   Clear
7:53 AM 34.0 °F 26.6 °F 30.0 °F 85% 30.14 in 10.0 mi SE 9.2 mph - N/A   Clear
8:53 AM 39.9 °F 33.4 °F 34.0 °F 79% 30.13 in 10.0 mi SSE 10.4 mph - N/A   Clear
9:53 AM 48.0 °F - 35.1 °F 61% 30.12 in 10.0 mi SSE 15.0 mph - N/A   Clear
10:53 AM 52.0 °F - 33.1 °F 49% 30.09 in 10.0 mi SSE 19.6 mph 32.2 mph N/A   Clear
11:53 AM 54.0 °F - 32.0 °F 43% 30.04 in 10.0 mi South 21.9 mph 33.4 mph N/A   Clear
12:53 PM 55.0 °F - 32.0 °F 42% 30.00 in 10.0 mi SSE 21.9 mph 32.2 mph N/A   Clear
1:53 PM 55.0 °F - 30.0 °F 38% 29.98 in 10.0 mi SSE 21.9 mph 33.4 mph N/A   Clear
2:53 PM 55.0 °F - 30.0 °F 38% 29.96 in 10.0 mi SSE 21.9 mph 31.1 mph N/A   Clear
3:53 PM 54.0 °F - 30.9 °F 41% 29.94 in 10.0 mi SSE 18.4 mph 28.8 mph N/A   Clear
4:53 PM 52.0 °F - 32.0 °F 47% 29.95 in 10.0 mi SSE 17.3 mph 25.3 mph N/A   Clear
5:53 PM 51.1 °F - 33.1 °F 50% 29.94 in 10.0 mi SSE 18.4 mph 24.2 mph N/A   Clear
6:53 PM 50.0 °F - 34.0 °F 54% 29.92 in 10.0 mi SSE 21.9 mph 28.8 mph N/A   Clear
7:53 PM 50.0 °F - 33.1 °F 52% 29.93 in 10.0 mi SE 20.7 mph 31.1 mph N/A   Clear
8:53 PM 48.9 °F - 33.1 °F 54% 29.93 in 10.0 mi SSE 19.6 mph 26.5 mph N/A   Clear
9:53 PM 48.0 °F - 33.1 °F 56% 29.94 in 10.0 mi SSE 16.1 mph 23.0 mph N/A   Clear
10:53 PM 48.0 °F - 34.0 °F 58% 29.93 in 10.0 mi SSE 16.1 mph 21.9 mph N/A   Clear